Regional Weather Roundup
Issued by NWS

Home | Current Version | Previous Version | Graphics & Text | Print | Product List | Glossary On
Versions: 1 2 3 4 5 6 7 8 9 10 11 12 13 14 15 16 17 18 19 20 21 22 23 24 25 26 27 28 29 30 31 32 33 34 35 36 37 38 39 40 41 42 43 44 45 46 47 48 49 50
000
ASUS43 KTOP 300459
RWRKS

WEATHER ROUNDUP FOR KANSAS
NATIONAL WEATHER SERVICE GOODLAND KS
1200 AM CDT TUE JUN 30 2015

NOTE:  "FAIR" INDICATES FEW OR NO CLOUDS BELOW 12,000 FEET WITH NO
SIGNIFICANT WEATHER AND/OR OBSTRUCTIONS TO VISIBILITY.

KSZ001>006-013>018-027>032-041>047-300600-
NORTHWEST KANSAS

CITY           SKY/WX    TMP DP  RH WIND       PRES   REMARKS
GOODLAND       CLEAR     70  56  61 SW9       30.10S
HAYS           PTCLDY    73  52  46 E9        30.01S
HILL CITY      CLEAR     71  54  54 CALM      30.01S
RUSSELL        CLEAR     73  58  59 SE8       29.99S
$$

KSZ061>065-074>080-084>089-300600-
SOUTHWEST KANSAS

CITY           SKY/WX    TMP DP  RH WIND       PRES   REMARKS
DODGE CITY     CLEAR     68  56  65 SE8       30.06R
ELKHART          N/A     73  54  51 S6          N/A
GARDEN CITY    CLEAR     72  61  68 S5        30.06S
GREAT BEND     CLEAR     75  57  53 SE8       30.01S
LIBERAL        CLEAR     73  59  60 CALM        N/A
$$

KSZ066>073-081>083-090>101-300600-
SOUTHEAST KANSAS

CITY           SKY/WX    TMP DP  RH WIND       PRES   REMARKS
CHANUTE        CLEAR     68  65  90 S5        29.96S
COFFEYVILLE    CLEAR     70  66  87 S6        29.96S
HUTCHINSON     CLEAR     70  60  70 CALM      30.00R
MEDICINE LODGE   N/A     78  59  51 SE6       30.00R
NEWTON         CLEAR     72  55  56 S7        30.01S
PARSONS        CLEAR     68  67  96 CALM      29.97S
WICHITA INTL   PTCLDY    72  61  68 S5        29.98S
WICHITA JABRA  CLEAR     72  60  66 S6        29.99R
WINFIELD       CLEAR     70  62  76 CALM      30.00R
$$

KSZ007>012-019>026-033>040-048>060-102>105-300600-
NORTHEAST KANSAS

CITY           SKY/WX    TMP DP  RH WIND       PRES   REMARKS
CONCORDIA      CLEAR     71  60  68 SE5       29.97S
EMPORIA        PTCLDY    68  62  81 S7        29.96S
LAWRENCE       CLEAR     67  64  90 NW3       29.93S
MANHATTAN      CLEAR     67  63  87 CALM      29.95S
OLATHE IND     CLEAR     72  65  78 SW5       29.95R
OLATHE EXE     CLEAR     75  64  68 W3        29.94R
SALINA         CLEAR     74  59  59 S7        29.97S
TOPEKA BILLARD CLEAR     72  68  87 CALM      29.94R
TOPEKA FORBES  CLEAR     72  65  78 CALM      29.94S
$$


USA.gov is the U.S. government's official web portal to all federal, state and local government web resources and services.